Location: Manning Provincial Park
(49.0805°N, 120.7632°W)
Time: 20:00:33
(UTC-08:00)

N. Korean satellite - Visible Passes

Search period start: 10 December 2019 00:00
Search period end: 20 December 2019 00:00
Orbit: 455 x 506 km, 97.2° (Epoch: 10 December)

Date Brightness Start Highest point End Pass type
(mag) Time Alt. Az. Time Alt. Az. Time Alt. Az.
10 Dec 9.9 04:54:32 10° ENE 04:56:19 13° E 04:58:04 10° ESE visible
10 Dec 6.7 06:26:34 10° N 06:30:02 49° WNW 06:33:25 10° SSW visible
10 Dec 6.9 17:05:16 10° S 17:08:58 75° WSW 17:12:41 10° NNW visible
11 Dec 6.6 06:01:04 10° NNE 06:04:38 80° ESE 06:08:06 10° S visible
11 Dec 6.7 16:39:57 10° SSE 16:43:34 54° ENE 16:47:11 10° N visible
11 Dec 10.0 18:15:23 10° WSW 18:17:16 13° W 18:19:11 10° WNW visible
12 Dec 8.0 05:35:48 10° NNE 05:39:07 38° E 05:42:23 10° SSE visible
12 Dec 8.0 07:09:50 10° NNW 07:12:15 18° WNW 07:14:39 10° WSW visible
12 Dec 9.1 17:48:33 10° SSW 17:51:38 24° W 17:54:42 10° NW visible
13 Dec 9.3 05:10:51 10° NE 05:13:32 20° E 05:16:09 10° SE visible
13 Dec 7.2 06:43:50 10° N 06:47:00 31° WNW 06:50:07 10° SW visible
13 Dec 7.8 17:22:30 10° S 17:26:05 46° W 17:29:39 10° NNW visible
14 Dec 10.1 04:47:04 10° ENE 04:47:50 11° E 04:48:36 10° E visible
14 Dec 6.4 06:18:10 10° N 06:21:39 62° WNW 06:25:05 10° SSW visible
14 Dec 6.6 16:56:55 10° SSE 17:00:37 87° ENE 17:04:17 10° NNW visible
15 Dec 6.9 05:52:43 10° NNE 05:56:13 63° ESE 05:59:38 10° S visible
15 Dec 9.8 18:06:28 10° SW 18:08:50 16° W 18:11:12 10° NW visible
16 Dec 8.4 05:27:32 10° NNE 05:30:41 30° E 05:33:46 10° SSE visible
16 Dec 7.8 07:01:15 10° NNW 07:03:55 21° WNW 07:06:35 10° WSW visible
16 Dec 8.8 17:39:58 10° SSW 17:43:13 29° W 17:46:27 10° NNW visible
17 Dec 9.6 05:02:47 10° NE 05:05:03 16° E 05:07:17 10° SE visible
17 Dec 6.9 06:35:22 10° N 06:38:38 38° WNW 06:41:51 10° SW visible
17 Dec 7.3 17:14:04 10° S 17:17:41 58° W 17:21:17 10° NNW visible
18 Dec 6.3 06:09:45 10° N 06:13:15 79° WNW 06:16:42 10° SSW visible
18 Dec 6.5 16:48:35 10° SSE 16:52:14 70° ENE 16:55:51 10° N visible
18 Dec 10.2 18:25:20 10° W 18:26:04 10° W 18:26:46 10° WNW visible
19 Dec 7.4 05:44:23 10° NNE 05:47:47 49° E 05:51:07 10° S visible
19 Dec 9.5 17:57:41 10° SW 18:00:22 19° W 18:03:04 10° NW visible
